This is the latest recevied weather packets stored in our database for station/object WB0RXX. If no packets are shown the sender has not sent any weather packets the latest 10 day(s).
| Time | Temp. | Humidity | Pressure | Rain* | Wind** | Luminosity | Snow |
|---|---|---|---|---|---|---|---|
| 1778007004 | 9.44° C | 41% | 1012.8 hPa | 0 mm | - | - | - |
| 1778006404 | 9.44° C | 42% | 1012.9 hPa | 0 mm | - | - | - |
| 1778005803 | 9.44° C | 43% | 1012.7 hPa | 0 mm | - | - | - |
| 1778005219 | 9.44° C | 42% | 1012.7 hPa | 0 mm | - | - | - |
| 1778004604 | 9.44° C | 43% | 1012.8 hPa | 0 mm | - | - | - |
| 1778004003 | 9.44° C | 41% | 1012.6 hPa | 0 mm | - | - | - |
| 1778003403 | 9.44° C | 40% | 1012.4 hPa | 0 mm | - | - | - |
| 1778002803 | 9.44° C | 40% | 1012.5 hPa | 0 mm | - | - | - |
| 1778002219 | 9.44° C | 42% | 1012.6 hPa | 0 mm | - | - | - |
| 1778001604 | 10° C | 40% | 1012.5 hPa | 0 mm | - | - | - |
| 1778001004 | 8.89° C | 42% | 1012.6 hPa | 0 mm | - | - | - |
| 1778000404 | 9.44° C | 41% | 1012.5 hPa | 0 mm | - | - | - |
| 1777999804 | 8.89° C | 42% | 1012.4 hPa | 0 mm | - | - | - |
| 1777999203 | 9.44° C | 43% | 1012.3 hPa | 0 mm | - | - | - |
| 1777998604 | 8.33° C | 44% | 1012.4 hPa | 0 mm | - | - | - |
| 1777998004 | 8.89° C | 44% | 1012.3 hPa | 0 mm | - | - | - |
| 1777997404 | 8.89° C | 45% | 1012.2 hPa | 0 mm | - | - | - |
| 1777996804 | 8.89° C | 44% | 1012.2 hPa | 0 mm | - | - | - |
| 1777996204 | 8.89° C | 46% | 1012.3 hPa | 0 mm | - | - | - |
| 1777995604 | 8.33° C | 46% | 1012.4 hPa | 0 mm | - | - | - |
| 1777995004 | 8.33° C | 49% | 1012.2 hPa | 0 mm | - | - | - |
| 1777994403 | 8.89° C | 48% | 1012.2 hPa | 0 mm | - | - | - |
| 1777993804 | 7.78° C | 48% | 1012.2 hPa | 0 mm | - | - | - |
| 1777993220 | 7.78° C | 53% | 1012.2 hPa | 0 mm | - | - | - |
| 1777992619 | 7.78° C | 55% | 1012.2 hPa | 0 mm | - | - | - |
* Rain latest hour (hover to see other rain measurements)
** Current wind speed in m/s (hover to see current wind gust speed)